{"data":{"norad_id":66682,"epoch":"2026-05-25T03:00:15.829344Z","epoch_age_seconds":57541,"freshness":"FRESH","line1":"1 66682U 25276S   26145.12518321  .00000687  00000+0  63789-4 0  9998","line2":"2 66682  97.5294 216.6322 0003404 239.5456 120.5430 14.97484036 26620","mean_motion":14.97484036,"eccentricity":0.0003404,"inclination_deg":97.5294,"raan_deg":216.6322,"arg_perigee_deg":239.5456,"mean_anomaly_deg":120.543,"bstar":6.3789e-5,"rev_number":2662,"period_min":96.161292232968,"perigee_km":572.30645973059,"apogee_km":577.03993291225,"semimajor_km":6952.8101963214,"source":"CELESTRAK","updated_at":"2026-05-25T13:38:06.410704Z"}}